STARLINK-11554, 62833

Orbit data source: Space-Track

STARLINK-11554, 62833 is a payload satellite owned by SpaceX/Seattle (US) in LEO that was launched on Mon, 27 Jan 2025 UTC via an FALCON 9 launch vehicle from the Air Force Eastern Test Range (AFETR). Payload-class satellites include a variety of spacecraft equipped with specific instruments for various scientific and technological missions. These include communications satellites like Starlink; space stations such as the ISS; scientific satellites like the Hubble; Earth observation satellites from companies like Planet Labs, Umbra, and HawkEye 360; GPS; miniature CubeSats for education and research; and military/defense satellites.

Loading next visibility...
Identifier
62833, 2025-019E
Orbit
LEO
Last TLE update
8 hours ago
Origin
Manufacturer
SpaceX/Seattle
Mission
Operational Commercial Communications
Bus & Motor
STARLINK V2M, Unknown motor
Mass
730 kg wet, ~700 kg dry
Launch date (UTC)
2025-01-27 (3 months ago)
Launch vehicle
FALCON 9
Launch site
Air Force Eastern Test Range (AFETR)
Object type
Payload
Rocket body
Debris
Shape & HBR
Box + 2 Pan, 29 m
Radar Cross Section
36.964 m², Large (>1 m²)

Expand to show TLE details & history

TLE from 8 hours ago
0 STARLINK-11554
1 62833U 25019E   25128.91223027 -.00003930  00000-0 -27175-4 0  9996
2 62833  43.0048 343.4018 0002923 316.2164  43.8472 15.70800917 15940
Epoch: 2025-05-08T21:53Z
Definitive object data (Epoch: 2025-05-08T21:53:36.695Z)
Latitude
0.00001°
Longitude
148.023°
Altitude
354.959 km
Speed
7.699 km/s
True Right ascension
22h 53m 36s
True Declination
0° 00' 00"
Sunlit
Object was in daylight at TLE epoch
Visualization TLE readout
Latitude
17.84609°
Longitude
166.15299°
Altitude
355.065 km
Speed
7.7 km/s
Apparent Right ascension
00h 49m 39s
Apparent Declination
-10° 21' 56"
Sunlit
Object is in daylight
Visualization observer readout
Local Sidereal Time
13:46:52
Azimuth
27.164° NE
Elevation
-57.836°
Doppler factor
1
Orbital elements
Apogee altitude
360.557 km
Perigee altitude
356.618 km
Semi-major axis
6,736.725 km
Eccentricity
0.0002923
Inclination
43.0048°
RAAN
343.4018°
Arg. of periapsis
316.2164°
True anomaly
43.87041°
Mean anomaly
43.8472°
Eccentric anomaly
43.8588°
Mean motion
3.92527 °/min
BSTAR
-0.000027175
Orbital period
91.71 mins
Loading maneuver chart data...
Loading SW <> Apogee altitude chart data...
Loading historical data...
Loading historical data...
Loading historical data...
Loading historical data...
Loading historical data...
Loading historical data...
Loading historical data...

STARLINK-11554 Visibility forecast

Observer location: undefined°, undefined°

Span
Click to sort rows by Start time (UTC) header in descending order
Start Az.
Max El. time (UTC)
Max El. Az.
Max El.
End time (UTC)
End Az.
4 mins2025-05-09 17:58:09.911Z225.739° WSW2025-05-09 18:00:09.911Z143.611° SSE37.303°2025-05-09 18:02:09.911Z82.702° E
4 mins2025-05-09 21:11:09.911Z304.144° NW2025-05-09 21:12:09.911Z340.329° N36.595°2025-05-09 21:15:09.911Z86.884° E
4 mins2025-05-09 22:47:09.911Z265.617° W2025-05-09 22:48:09.911Z233.778° WSW32.297°2025-05-09 22:51:09.911Z134.541° SE
|